Lapse_Rate
0.5 0.8 0.2 -1.3 -1.3 -1.0 -0.7 -0.1 0.0 0.8 1.7 3.6 4.2 4.3 4.4 3.6 3.5 3.7 4.5 4.8 5.1 4.6 4.3 4.1 4.5 4.9 4.7 4.9 4.7 5.5 5.5 4.3 4.6 5.0 4.9 4.2 4.5 4.3 4.2 4.3 3.8 3.8 3.4
1.9 1.9 0.7 -1.3 -1.5 -1.6 -0.1 0.3 0.6 0.9 1.6 2.6 4.6 4.5 3.9 3.2 3.5 3.0 3.6 4.7 4.7 4.4 4.4 4.5 4.9 6.0 5.7 4.9 5.4 5.3 4.2 4.7 5.0 5.7 4.6 5.2 5.5 4.7 4.0 3.8 3.8 3.6 4.1
2.9 3.6 0.7 -1.3 -1.6 -1.0 -0.7 0.1 0.6 1.0 2.0 3.0 4.1 3.8 3.1 3.4 3.5 3.5 3.8 3.6 4.5 4.3 4.7 4.6 4.5 6.4 5.7 5.3 6.0 6.2 6.1 6.1 4.2 5.3 4.3 4.6 4.7 4.9 4.1 3.7 3.9 3.7 3.4
4.0 2.1 1.8 -0.6 -1.1 -0.7 0.1 0.4 1.1 1.8 2.3 3.0 4.3 4.3 4.4 4.3 4.3 4.1 3.4 3.2 4.1 4.5 4.3 4.2 5.3 6.0 6.0 5.3 5.7 5.0 5.2 6.0 5.8 3.5 4.0 4.1 3.2 4.6 4.8 4.3 3.7 3.5 3.6
3.5 3.3 1.9 -0.7 -0.8 -0.7 -0.3 0.6 1.7 2.8 2.6 3.6 4.5 4.8 4.5 4.9 4.1 4.0 4.1 3.3 3.1 3.6 4.2 4.3 5.0 4.5 4.6 4.1 4.6 3.9 3.8 3.7 2.8 2.9 3.8 4.2 3.4 3.4 3.7 4.0 3.9 3.5 3.4
3.5 3.7 2.7 0.7 -0.7 0.2 0.3 1.1 2.5 3.1 3.2 4.4 4.5 5.1 5.3 4.7 4.4 4.8 4.6 4.7 4.4 4.3 4.4 4.2 5.2 4.8 4.4 4.2 4.4 3.7 4.0 3.6 3.1 4.0 3.8 4.2 4.2 3.8 3.5 3.4 2.6 3.7 2.6
3.2 4.8 4.2 0.8 -0.0 0.7 0.8 1.8 3.0 3.5 3.7 4.7 4.9 4.1 4.6 4.3 5.0 4.9 4.9 4.7 4.5 4.2 3.8 3.7 3.9 4.1 4.6 4.3 5.3 4.4 4.1 3.8 3.7 3.6 4.0 3.9 4.0 3.3 3.0 3.1 2.9 3.2 2.2
3.7 5.3 3.1 0.3 -0.2 0.6 0.9 2.2 3.1 3.7 3.9 4.5 4.6 4.5 4.3 4.8 5.0 5.3 4.8 5.0 4.7 4.0 3.2 3.1 3.5 3.9 5.2 4.9 4.9 4.6 3.9 3.8 3.9 3.7 3.6 3.6 3.1 3.4 2.8 3.0 2.7 3.2 2.4
4.4 5.5 5.1 1.2 0.4 0.3 0.4 1.4 2.5 3.8 3.8 4.4 4.9 4.7 4.8 5.1 5.0 4.6 4.9 4.9 4.7 5.3 4.9 5.2 5.5 5.4 4.8 5.3 5.4 4.9 4.4 3.9 3.7 4.1 3.8 3.3 3.7 2.8 2.5 3.1 3.0 3.1 3.5
6.3 6.5 5.0 2.0 0.8 0.1 0.8 1.8 2.6 2.6 3.3 4.7 5.2 5.1 4.4 5.3 4.8 5.1 4.2 5.0 5.1 6.2 5.3 5.8 5.5 5.3 5.4 5.9 6.0 5.5 4.7 4.7 4.2 4.4 4.1 3.9 2.9 2.3 2.5 3.2 2.8 2.5 4.1
5.9 6.6 4.4 2.0 1.4 1.0 0.8 1.2 2.5 3.0 4.1 4.9 5.7 5.6 5.5 5.1 5.3 4.7 5.1 4.8 5.3 5.7 5.7 5.5 5.3 5.8 6.6 6.2 5.6 5.9 5.5 4.4 4.4 4.4 4.3 4.6 4.0 3.5 2.9 2.6 2.8 3.0 2.8
5.3 6.0 6.2 4.8 2.7 1.1 0.9 1.4 2.4 3.1 3.2 4.1 6.1 6.2 5.9 5.7 5.2 5.1 5.3 5.2 5.4 5.6 6.0 5.6 5.7 5.4 5.7 5.0 4.9 5.2 5.5 5.2 4.5 4.7 4.3 4.5 3.5 3.0 3.3 3.2 3.3 3.1 3.3
6.2 3.8 5.9 4.8 3.0 1.9 1.5 2.2 2.5 3.2 3.6 3.5 6.3 6.6 6.5 6.0 5.8 5.7 5.7 5.8 4.9 5.0 5.3 5.7 5.7 5.7 5.5 5.1 5.4 5.9 5.5 5.0 4.8 4.7 4.1 4.4 3.2 3.6 3.6 3.0 3.5 3.3 3.2
6.7 3.9 6.0 5.7 3.9 2.9 2.1 2.0 2.2 2.5 3.2 3.2 4.8 6.6 6.6 6.5 6.4 5.9 6.1 6.1 5.5 5.1 5.4 5.6 5.7 5.7 5.5 5.6 5.5 5.4 4.9 5.0 4.7 4.7 4.3 4.2 4.0 4.0 3.8 3.6 3.8 4.0 3.7
6.1 4.4 4.7 5.4 5.4 4.3 3.3 2.3 2.1 1.9 2.6 3.1 3.8 6.8 6.6 6.8 6.5 6.4 6.2 6.3 5.9 5.4 5.4 5.9 5.9 5.4 5.6 5.9 5.6 5.7 5.7 5.4 4.7 3.8 3.4 2.8 1.1 -2.0 -0.9 2.8 4.1 3.3 3.6
6.7 5.5 5.5 5.8 6.0 5.3 4.0 2.9 1.8 1.9 2.9 3.2 3.4 3.5 5.7 6.4 6.5 6.5 6.1 6.1 5.7 5.6 5.2 4.7 5.1 5.1 5.5 3.3 1.3 3.5 4.4 4.1 4.2 4.1 -1.8 -3.2 -3.5 -4.2 -4.3 -3.7 -4.0 -3.3 0.8
7.5 5.9 5.8 5.2 3.7 4.0 5.5 4.5 3.9 4.0 3.8 3.5 3.2 3.4 4.1 4.9 6.7 6.7 6.3 6.1 6.2 5.8 5.1 5.2 5.1 4.7 4.6 0.9 0.5 -0.2 4.6 3.9 3.7 1.4 -2.0 -3.4 -4.1 -4.6 -4.3 -5.0 -4.9 -4.9 -5.2
6.4 4.8 3.1 1.9 1.6 1.9 3.0 3.6 5.5 2.6 3.6 4.2 4.0 3.9 3.8 4.6 5.6 6.1 6.8 6.5 6.5 6.1 5.9 5.2 5.2 5.1 4.3 -0.1 -0.3 -0.7 1.6 -2.0 -2.5 -2.3 -2.6 -3.6 -4.3 -4.6 -4.4 -4.5 -5.0 -5.0 -4.4
5.7 4.8 4.1 1.9 0.2 -0.3 0.5 0.7 -0.1 3.1 5.2 5.4 5.6 5.3 4.1 4.2 4.5 4.9 5.3 5.8 6.0 5.7 5.8 5.8 4.9 5.2 -2.1 -4.1 -3.4 -2.3 -2.9 -4.0 -4.4 -4.5 -4.6 -4.5 -4.6 -4.1 -3.3 -4.2 -3.6 -4.0 -2.0
4.0 2.4 1.6 1.9 1.3 1.3 0.9 -0.0 -1.2 -0.8 0.5 1.5 1.9 4.3 5.9 5.1 4.8 4.3 4.1 4.2 4.7 4.2 0.5 -1.1 -2.4 -2.9 -3.6 -4.1 -3.5 -3.3 -4.3 -5.2 -5.7 -5.7 -5.3 -5.1 -4.6 -3.1 -2.2 -1.0 -0.1 -0.6 1.2
4.4 4.1 1.8 -0.1 0.3 -0.1 1.3 0.7 -0.2 -0.8 -0.8 -0.8 -0.5 0.5 0.8 3.5 4.7 4.8 2.2 -1.3 -2.3 -2.3 -2.5 -3.1 -4.1 -4.8 -5.0 -4.9 -4.5 -4.0 -4.1 -5.1 -5.6 -4.5 -3.3 -3.0 -1.3 -0.8 0.7 1.0 1.1 0.6 1.4
4.1 3.4 1.8 0.2 -0.1 -0.4 1.6 1.2 0.1 0.3 0.0 -1.3 -1.7 -2.3 -2.4 -0.9 -0.7 -1.5 -2.3 -2.9 -3.5 -4.8 -5.5 -5.7 -5.8 -5.7 -5.3 -4.8 -4.9 -5.3 -5.3 -5.0 -4.4 -1.8 0.7 3.5 3.2 2.5 1.7 1.1 1.4 1.4 1.8
3.1 3.1 2.2 0.7 -1.4 -1.4 -0.4 -0.6 -0.5 -0.2 -1.3 -2.2 -2.8 -2.7 -2.6 -3.1 -2.8 -2.2 -2.9 -3.9 -3.8 -4.4 -4.4 -4.6 -4.9 -4.0 -2.9 -2.4 -2.4 -1.5 -1.7 -1.8 -0.7 1.8 2.9 2.8 1.9 1.3 1.1 1.9 2.1 1.6 2.5
2.6 2.3 1.6 -0.3 -0.5 0.1 0.6 1.4 1.3 0.4 -0.6 -2.3 -3.3 -3.1 -3.5 -3.6 -2.7 -1.9 -1.3 -0.7 -1.3 -2.2 -3.9 -2.8 -1.6 -1.3 0.4 0.7 1.8 1.5 2.3 2.1 1.7 1.4 1.0 1.0 0.9 0.3 1.3 1.9 2.0 2.1 3.0
1.9 1.5 0.8 0.4 1.2 1.4 -0.2 0.6 1.5 0.9 -0.5 -0.8 -0.3 -1.8 -3.1 -2.9 -2.7 -1.4 0.7 1.3 1.9 3.5 2.6 3.0 2.6 2.2 2.5 2.3 2.2 2.0 1.3 0.5 0.8 1.4 3.1 2.5 2.8 2.4 2.5 2.8 3.0 4.0 4.3
2.4 1.5 0.8 0.7 1.1 1.2 0.3 1.0 0.0 -0.6 -1.1 -0.7 -0.0 1.6 2.0 0.8 -0.5 -1.2 -0.2 1.6 2.2 2.5 3.7 2.9 2.9 3.7 3.0 3.2 3.2 3.2 3.2 2.5 2.3 2.4 2.6 2.8 3.0 3.7 4.2 3.6 3.8 3.8 3.3
Wind_Speed
6 16 17 16 16 15 16 15 14 13 9 5 3 2 3 2 2 3 9 15 17 22 16 11 10 11 13 13 11 10 11 4 4 6 6 3 5 7 6 11 10 12 15
8 15 16 16 18 18 15 14 14 15 10 7 4 2 2 1 1 2 3 11 13 15 15 15 13 14 10 13 13 12 5 3 5 6 3 4 1 2 4 5 6 10 15
16 15 16 16 15 18 17 15 15 14 11 9 7 4 4 3 2 3 2 2 11 17 16 16 16 12 11 12 11 12 10 9 1 9 4 3 4 3 3 6 7 8 7
16 19 17 16 18 16 15 14 14 15 12 12 9 10 5 5 2 4 2 3 7 12 17 17 15 14 11 12 10 8 8 9 9 3 2 2 5 3 1 2 7 7 9
16 22 20 20 17 17 15 13 14 17 15 12 12 9 8 5 6 5 6 5 5 6 15 19 15 12 9 7 8 7 6 5 5 4 3 1 2 2 3 3 3 2 6
14 22 19 16 16 14 14 13 16 17 14 13 12 11 11 10 8 8 6 4 5 6 10 13 11 10 9 6 4 5 7 5 5 3 4 4 3 3 3 1 2 6 4
11 18 20 18 18 18 16 14 16 17 15 14 13 10 11 11 11 11 8 8 5 5 7 9 7 5 6 5 3 4 5 5 4 6 4 3 4 4 3 3 2 3 3
14 21 22 20 19 19 18 17 17 18 16 14 14 11 10 8 9 10 8 7 7 7 9 10 11 11 10 8 4 4 3 4 5 7 5 4 4 3 4 4 4 1 2
20 22 19 18 19 18 20 19 18 19 18 15 12 13 11 12 11 11 9 8 6 7 11 11 10 9 11 12 9 6 6 4 5 7 6 4 4 4 4 3 3 4 4
17 17 18 19 17 17 16 16 16 19 20 17 14 13 12 12 11 10 8 10 9 10 9 12 12 11 13 15 14 10 6 7 5 5 5 6 6 5 5 6 4 4 6
6 14 17 18 17 16 17 16 16 17 19 18 15 15 14 13 11 12 10 9 10 10 11 12 12 15 15 14 13 13 11 8 7 7 8 12 10 7 5 5 6 6 6
7 10 12 15 16 16 17 17 16 16 17 16 16 15 14 14 14 12 13 10 11 11 13 12 12 11 11 10 11 12 11 11 13 12 11 13 6 8 9 7 10 9 9
12 7 12 15 16 15 15 16 15 15 15 16 15 15 15 15 15 15 14 13 11 12 11 13 14 14 13 11 12 13 13 13 14 13 12 12 8 10 8 9 9 8 7
17 1 10 14 15 15 16 16 15 15 15 15 15 15 15 16 14 14 15 15 14 13 14 13 13 14 14 15 14 14 13 12 12 12 12 12 12 13 12 10 12 11 9
19 5 7 10 12 12 13 13 13 15 16 17 17 16 15 15 15 16 15 14 14 14 15 16 15 13 13 12 15 14 14 14 12 10 10 8 1 5 3 7 10 9 9
16 14 4 3 3 7 9 12 13 15 15 16 17 17 16 15 16 16 16 15 15 15 14 16 16 16 12 15 16 13 10 10 11 10 4 6 10 11 12 14 14 6 4
16 17 16 15 13 8 2 8 8 7 11 13 15 16 17 17 17 15 16 17 17 15 15 15 15 16 16 17 19 19 13 11 11 7 8 6 5 9 10 14 18 18 18
13 13 12 12 12 12 11 7 8 15 13 14 14 14 16 16 16 16 17 17 15 17 16 16 16 15 14 14 16 15 9 5 5 5 8 10 10 8 9 11 12 12 11
10 9 9 10 10 13 12 11 13 7 9 10 11 13 13 15 16 17 17 15 14 14 15 15 17 17 5 8 13 14 8 8 8 7 7 8 9 12 15 14 14 14 10
10 11 11 9 12 11 11 11 13 12 11 10 10 9 11 15 16 16 15 14 13 10 5 5 5 6 7 9 17 16 9 10 9 10 10 15 15 15 14 13 11 14 8
13 13 13 13 13 14 12 12 12 12 10 9 10 10 9 3 6 10 5 5 7 8 8 8 8 9 8 7 8 6 10 11 10 8 8 9 22 26 23 16 11 13 9
16 16 11 13 14 14 11 11 13 10 10 10 11 12 13 9 7 9 6 6 9 11 10 11 10 9 9 14 18 21 20 16 13 12 10 12 24 24 24 16 18 18 10
13 12 10 10 14 15 13 13 11 9 9 11 13 12 13 13 13 11 8 6 7 8 7 8 10 10 9 11 27 27 28 26 17 12 19 25 24 23 19 21 18 13 7
11 11 12 13 13 11 12 11 10 9 9 11 12 12 14 14 14 11 10 8 6 6 9 10 10 10 10 9 10 13 15 25 18 16 13 13 14 17 12 11 10 8 6
11 11 11 12 10 9 10 10 8 8 11 12 10 10 11 15 17 17 11 12 13 9 8 8 9 12 11 10 11 11 11 11 12 12 8 9 8 9 9 7 8 6 6
9 10 11 10 10 10 11 10 10 10 10 11 10 9 8 9 11 15 16 28 25 29 22 23 13 11 22 25 25 24 21 22 17 9 8 8 8 7 7 7 7 6 7
Wind_Direction
206 155 153 147 146 151 152 159 149 153 143 139 141 158 186 176 173 194 187 179 183 175 171 168 168 169 168 167 162 153 159 144 144 121 106 59 164 172 177 177 183 191 197
142 155 153 154 160 154 156 158 155 156 155 158 145 145 144 116 120 131 187 190 180 166 170 169 168 176 167 156 162 156 137 115 164 143 96 139 110 235 196 179 182 198 200
164 164 165 164 156 160 164 161 159 156 152 153 124 115 105 104 101 132 150 184 185 169 176 170 162 183 165 159 159 162 152 159 116 158 141 118 195 138 163 206 199 196 200
178 172 168 166 168 166 160 157 158 157 156 154 145 160 165 160 151 147 131 110 177 174 167 162 165 172 161 160 154 155 151 150 168 90 76 109 139 163 205 204 205 207 204
182 173 181 174 167 160 160 158 159 163 162 160 157 168 163 153 142 139 130 109 102 145 168 163 161 149 148 125 138 131 129 140 159 127 148 127 81 101 132 203 220 189 206
189 186 176 156 156 156 156 158 163 168 160 160 161 173 164 157 156 157 152 146 122 122 141 131 143 140 125 110 120 129 146 157 124 148 157 160 166 184 151 155 196 211 238
188 170 163 160 159 165 161 162 167 170 167 167 165 166 167 165 169 165 164 162 152 143 124 108 97 102 126 132 179 151 177 168 170 173 186 183 201 154 169 161 195 210 239
180 179 173 164 164 166 165 167 170 171 170 170 167 166 166 169 169 179 170 171 170 159 153 149 155 161 172 191 208 203 180 168 196 193 184 190 207 200 169 176 147 240 278
179 175 171 162 164 169 173 171 170 173 174 171 171 170 173 175 177 177 174 176 166 167 164 166 167 165 169 195 226 220 211 183 206 215 204 197 219 206 202 187 171 169 207
163 167 170 167 172 173 168 168 172 173 175 173 175 177 177 184 178 176 171 175 170 173 161 172 178 181 194 201 204 209 202 193 211 215 206 229 233 213 215 211 204 198 218
282 178 174 176 169 163 169 171 172 171 178 177 176 182 183 180 188 182 185 176 173 175 176 178 181 192 201 201 198 205 208 198 218 223 216 224 224 224 223 217 223 220 211
351 208 181 169 168 167 171 175 174 175 177 177 176 185 187 184 184 192 189 183 185 184 184 188 193 186 194 194 195 201 207 207 226 222 218 225 219 223 231 230 235 229 227
323 257 179 173 173 171 172 174 176 179 177 172 181 186 191 193 193 192 192 193 185 189 188 194 199 204 200 196 208 211 207 207 216 217 215 225 210 229 233 228 236 236 239
324 134 184 181 172 171 174 174 175 178 178 177 182 190 192 192 198 199 197 194 194 196 198 199 203 207 211 213 213 213 214 215 217 216 215 220 220 227 231 237 237 241 236
319 239 189 169 167 166 177 179 178 178 180 185 189 195 195 194 193 198 201 202 200 199 202 207 211 210 214 216 218 221 224 224 224 217 214 222 211 25 342 242 242 238 240
15 29 32 60 144 170 179 186 185 188 185 190 195 190 196 197 196 197 197 199 204 208 205 205 210 214 218 214 210 210 215 216 219 226 127 111 104 84 81 81 72 56 206
23 24 26 37 37 26 201 185 192 196 208 204 195 196 196 199 199 196 198 202 204 202 208 212 215 220 221 211 208 207 219 214 218 187 159 138 130 124 111 90 79 66 66
46 37 10 31 23 4 4 348 202 187 193 210 210 204 198 208 206 205 205 206 203 205 207 212 216 218 224 213 212 207 209 114 107 136 155 150 148 145 135 113 91 76 66
28 45 47 34 10 18 11 16 26 7 210 219 217 211 211 205 203 210 208 204 204 205 207 211 212 219 175 183 156 135 121 106 93 92 101 115 117 129 131 113 105 96 81
24 25 28 52 42 21 41 30 32 30 21 353 327 286 204 215 210 209 206 206 209 205 145 109 83 112 134 154 150 136 131 124 117 100 91 101 107 100 108 105 106 101 82
12 20 26 36 23 18 30 40 43 28 9 12 13 9 22 5 224 207 202 142 125 121 113 99 70 69 61 67 70 98 141 138 122 100 98 101 107 107 100 89 94 100 94
13 16 24 30 24 27 13 39 41 25 28 38 39 34 28 34 34 77 71 82 119 115 106 98 83 69 69 82 82 88 90 97 99 93 95 91 89 90 89 91 84 86 79
3 9 23 27 28 29 20 27 22 20 48 52 44 47 49 43 39 47 55 67 92 106 103 101 103 94 85 85 95 93 94 96 100 105 108 99 95 87 83 82 80 76 69
3 6 14 28 26 21 26 31 21 24 37 59 64 61 62 58 53 49 40 44 34 93 114 113 109 103 96 95 96 102 95 102 104 107 105 101 100 93 84 75 71 71 75
14 15 20 23 11 10 31 31 38 44 54 49 40 58 79 81 76 65 57 59 47 38 83 84 101 112 107 103 106 109 110 111 107 111 108 97 97 92 90 82 79 82 77
25 26 28 20 7 18 34 31 41 58 69 72 61 40 46 70 87 96 87 72 76 75 54 77 82 75 97 101 98 95 93 94 99 98 92 86 81 83 89 90 85 76 79